2016-03-09 00:01:37 r, 19.18m,0000000002Hz,0000256450c,0000000.557s, 008.7C,00002191
2016-03-09 00:11:37 r, 19.17m,0000000002Hz,0000255340c,0000000.554s, 008.7C,00002191
2016-03-09 00:21:37 r, 19.16m,0000000002Hz,0000252398c,0000000.548s, 008.7C,00002191
2016-03-09 00:31:37 r, 19.23m,0000000001Hz,0000270678c,0000000.587s, 008.7C,00002191
2016-03-09 00:41:38 r, 19.17m,0000000002Hz,0000255341c,0000000.554s, 008.3C,00002191
2016-03-09 00:51:37 r, 19.13m,0000000002Hz,0000247450c,0000000.537s, 008.3C,00002191
2016-03-09 01:01:37 r, 19.14m,0000000002Hz,0000248057c,0000000.538s, 008.3C,00002191
2016-03-09 01:11:39 r, 19.16m,0000000002Hz,0000252464c,0000000.548s, 008.3C,00002191
2016-03-09 01:21:37 r, 19.27m,0000000001Hz,0000281217c,0000000.610s, 008.3C,00002191
2016-03-09 01:31:37 r, 19.21m,0000000002Hz,0000265002c,0000000.575s, 008.3C,00002191
2016-03-09 01:41:37 r, 19.20m,0000000001Hz,0000261957c,0000000.568s, 008.3C,00002191
2016-03-09 01:51:37 r, 19.22m,0000000001Hz,0000267728c,0000000.581s, 008.3C,00002191
2016-03-09 02:01:37 r, 19.23m,0000000001Hz,0000269822c,0000000.586s, 008.3C,00002191
2016-03-09 02:11:38 r, 19.27m,0000000002Hz,0000281245c,0000000.610s, 008.0C,00002191
2016-03-09 02:21:37 r, 19.17m,0000000002Hz,0000254406c,0000000.552s, 008.3C,00002191
2016-03-09 02:31:37 r, 19.30m,0000000001Hz,0000287887c,0000000.625s, 008.3C,00002191
2016-03-09 02:41:38 r, 19.31m,0000000001Hz,0000291888c,0000000.633s, 008.3C,00002191
2016-03-09 02:51:37 r, 19.33m,0000000002Hz,0000298593c,0000000.648s, 008.3C,00002191
2016-03-09 03:01:37 r, 19.25m,0000000002Hz,0000275298c,0000000.597s, 008.0C,00002191
2016-03-09 03:11:37 r, 19.12m,0000000002Hz,0000243826c,0000000.529s, 008.0C,00002191
2016-03-09 03:21:37 r, 19.08m,0000000002Hz,0000235933c,0000000.512s, 008.0C,00002191
2016-03-09 03:31:37 r, 19.08m,0000000002Hz,0000236336c,0000000.513s, 008.0C,00002191
2016-03-09 03:41:38 r, 19.04m,0000000002Hz,0000226598c,0000000.492s, 008.0C,00002191
2016-03-09 03:51:37 r, 19.11m,0000000002Hz,0000240072c,0000000.521s, 008.3C,00002191
2016-03-09 04:01:37 r, 19.06m,0000000002Hz,0000229424c,0000000.498s, 008.0C,00002191
2016-03-09 04:11:37 r, 19.10m,0000000002Hz,0000239117c,0000000.519s, 008.3C,00002191
2016-03-09 04:21:37 r, 19.20m,0000000002Hz,0000263217c,0000000.571s, 008.3C,00002191
2016-03-09 04:31:37 r, 19.23m,0000000001Hz,0000270719c,0000000.587s, 008.3C,00002191
2016-03-09 04:41:37 r, 19.29m,0000000002Hz,0000286085c,0000000.621s, 008.0C,00002191
2016-03-09 04:51:37 r, 19.35m,0000000001Hz,0000301324c,0000000.654s, 008.0C,00002191
2016-03-09 05:01:37 r, 19.34m,0000000002Hz,0000299534c,0000000.650s, 008.0C,00002191
2016-03-09 05:11:39 r, 19.48m,0000000001Hz,0000338160c,0000000.734s, 007.7C,00002191
2016-03-09 05:21:37 r, 19.45m,0000000002Hz,0000330156c,0000000.716s, 007.7C,00002191
2016-03-09 05:31:37 r, 19.29m,0000000001Hz,0000285236c,0000000.619s, 007.7C,00002191
2016-03-09 05:41:38 r, 18.91m,0000000002Hz,0000200711c,0000000.436s, 007.7C,00002191
2016-03-09 05:51:37 r, 18.08m,0000000005Hz,0000093787c,0000000.204s, 007.7C,00002191
2016-03-09 06:01:37 r, 16.73m,0000000017Hz,0000027032c,0000000.059s, 007.7C,00002191
2016-03-09 06:11:36 r, 14.98m,0000000085Hz,0000005384c,0000000.012s, 007.7C,00002191
2016-03-09 06:21:37 r, 12.96m,0000000555Hz,0000000000c,0000000.000s, 007.7C,00002191
2016-03-09 06:31:37 r, 10.97m,0000003474Hz,0000000000c,0000000.000s, 007.7C,00002191
2016-03-09 06:41:38 r, 09.09m,0000019466Hz,0000000000c,0000000.000s, 007.7C,00002191
2016-03-09 06:51:37 r, 07.83m,0000062138Hz,0000000000c,0000000.000s, 007.7C,00002191
2016-03-09 07:01:37 r, 06.98m,0000136828Hz,0000000000c,0000000.000s, 007.7C,00002191
2016-03-09 07:11:37 r, 06.34m,0000247337Hz,0000000000c,0000000.000s, 008.0C,00002191
2016-03-09 07:21:37 r, 00.00m,0000412602Hz,0000000000c,0000000.000s, 008.0C,00002191
2016-03-09 07:31:37 r, 00.00m,0000596894Hz,0000000000c,0000000.000s, 008.0C,00002191
2016-03-09 07:41:37 r, 00.00m,0000596904Hz,0000000000c,0000000.000s, 008.0C,00002191
2016-03-09 07:51:37 r, 00.00m,0000596941Hz,0000000000c,0000000.000s, 008.3C,00002191
2016-03-09 08:01:37 r, 00.00m,0000596789Hz,0000000000c,0000000.000s, 008.7C,00002191
2016-03-09 08:11:37 r, 00.00m,0000596804Hz,0000000000c,0000000.000s, 009.0C,00002191
2016-03-09 08:21:37 r, 00.00m,0000596748Hz,0000000000c,0000000.000s, 009.0C,00002191
2016-03-09 08:31:36 r, 00.00m,0000596634Hz,0000000000c,0000000.000s, 009.6C,00002191
2016-03-09 08:41:37 r, 00.00m,0000596642Hz,0000000000c,0000000.000s, 009.9C,00002191
2016-03-09 08:51:37 r, 00.00m,0000596594Hz,0000000000c,0000000.000s, 010.3C,00002191
2016-03-09 09:01:37 r, 00.00m,0000596711Hz,0000000000c,0000000.000s, 010.3C,00002191
2016-03-09 09:11:37 r, 00.00m,0000596638Hz,0000000000c,0000000.000s, 010.3C,00002191
2016-03-09 09:21:37 r, 00.00m,0000596615Hz,0000000000c,0000000.000s, 010.6C,00002191
2016-03-09 09:31:36 r, 00.00m,0000596433Hz,0000000000c,0000000.000s, 011.6C,00002191
2016-03-09 09:41:37 r, 00.00m,0000596388Hz,0000000000c,0000000.000s, 012.5C,00002191
2016-03-09 09:51:37 r, 00.00m,0000596322Hz,0000000000c,0000000.000s, 013.2C,00002191
2016-03-09 10:01:37 r, 00.00m,0000596172Hz,0000000000c,0000000.000s, 013.8C,00002191
2016-03-09 10:11:37 r, 00.00m,0000596235Hz,0000000000c,0000000.000s, 014.1C,00002191
2016-03-09 10:21:36 r, 00.00m,0000596096Hz,0000000000c,0000000.000s, 014.8C,00002191
2016-03-09 10:31:37 r, 00.00m,0000596067Hz,0000000000c,0000000.000s, 015.4C,00002191
2016-03-09 10:41:37 r, 00.00m,0000596048Hz,0000000000c,0000000.000s, 015.7C,00002191
2016-03-09 10:51:37 r, 00.00m,0000596040Hz,0000000000c,0000000.000s, 015.7C,00002191
2016-03-09 11:01:37 r, 00.00m,0000596193Hz,0000000000c,0000000.000s, 015.1C,00002191
2016-03-09 11:11:37 r, 00.00m,0000596070Hz,0000000000c,0000000.000s, 015.1C,00002191
2016-03-09 11:21:38 r, 00.00m,0000596165Hz,0000000000c,0000000.000s, 015.4C,00002191
2016-03-09 11:31:37 r, 00.00m,0000596113Hz,0000000000c,0000000.000s, 015.4C,00002191
2016-03-09 11:41:37 r, 00.00m,0000595991Hz,0000000000c,0000000.000s, 016.1C,00002191
2016-03-09 11:51:38 r, 00.00m,0000595973Hz,0000000000c,0000000.000s, 016.4C,00002191
2016-03-09 12:01:37 r, 00.00m,0000595948Hz,0000000000c,0000000.000s, 016.7C,00002191
2016-03-09 12:11:37 r, 00.00m,0000595798Hz,0000000000c,0000000.000s, 017.4C,00002191
2016-03-09 12:21:38 r, 00.00m,0000595894Hz,0000000000c,0000000.000s, 017.4C,00002191
2016-03-09 12:31:37 r, 00.00m,0000595792Hz,0000000000c,0000000.000s, 018.0C,00002191
2016-03-09 12:41:36 r, 00.00m,0000595669Hz,0000000000c,0000000.000s, 018.6C,00002191
2016-03-09 12:51:37 r, 00.00m,0000595607Hz,0000000000c,0000000.000s, 019.0C,00002191
2016-03-09 13:01:37 r, 00.00m,0000595741Hz,0000000000c,0000000.000s, 019.0C,00002191
2016-03-09 13:11:37 r, 00.00m,0000595773Hz,0000000000c,0000000.000s, 019.0C,00002191
2016-03-09 13:21:38 r, 00.00m,0000595775Hz,0000000000c,0000000.000s, 019.3C,00002191
2016-03-09 13:31:37 r, 00.00m,0000595578Hz,0000000000c,0000000.000s, 019.6C,00002191
2016-03-09 13:41:37 r, 00.00m,0000595634Hz,0000000000c,0000000.000s, 019.3C,00002191
2016-03-09 13:51:38 r, 00.00m,0000595691Hz,0000000000c,0000000.000s, 019.3C,00002191
2016-03-09 14:01:37 r, 00.00m,0000595728Hz,0000000000c,0000000.000s, 019.0C,00002191
2016-03-09 14:11:36 r, 00.00m,0000595729Hz,0000000000c,0000000.000s, 019.0C,00002191
2016-03-09 14:21:38 r, 00.00m,0000595732Hz,0000000000c,0000000.000s, 018.6C,00002191
2016-03-09 14:31:37 r, 00.00m,0000595788Hz,0000000000c,0000000.000s, 018.3C,00002191
2016-03-09 14:41:36 r, 00.00m,0000595887Hz,0000000000c,0000000.000s, 017.7C,00002191
2016-03-09 14:51:37 r, 00.00m,0000595894Hz,0000000000c,0000000.000s, 017.0C,00002191
2016-03-09 15:01:37 r, 00.00m,0000595955Hz,0000000000c,0000000.000s, 016.7C,00002191
2016-03-09 15:11:37 r, 00.00m,0000596095Hz,0000000000c,0000000.000s, 016.1C,00002191
2016-03-09 15:21:36 r, 00.00m,0000596230Hz,0000000000c,0000000.000s, 014.8C,00002191
2016-03-09 15:31:37 r, 00.00m,0000596266Hz,0000000000c,0000000.000s, 014.5C,00002191
2016-03-09 15:41:36 r, 00.00m,0000596292Hz,0000000000c,0000000.000s, 013.8C,00002191
2016-03-09 15:51:37 r, 00.00m,0000596248Hz,0000000000c,0000000.000s, 013.8C,00002191
2016-03-09 16:01:37 r, 00.00m,0000596305Hz,0000000000c,0000000.000s, 013.8C,00002191
2016-03-09 16:11:37 r, 00.00m,0000596228Hz,0000000000c,0000000.000s, 014.1C,00002191
2016-03-09 16:21:38 r, 00.00m,0000596400Hz,0000000000c,0000000.000s, 013.8C,00002191
2016-03-09 16:31:37 r, 00.00m,0000596416Hz,0000000000c,0000000.000s, 013.5C,00002191
2016-03-09 16:41:37 r, 00.00m,0000596421Hz,0000000000c,0000000.000s, 012.8C,00002191
2016-03-09 16:51:38 r, 00.00m,0000596405Hz,0000000000c,0000000.000s, 013.2C,00002191
2016-03-09 17:01:37 r, 00.00m,0000596424Hz,0000000000c,0000000.000s, 012.8C,00002191
2016-03-09 17:11:37 r, 00.00m,0000596487Hz,0000000000c,0000000.000s, 012.5C,00002191
2016-03-09 17:21:36 r, 00.00m,0000596491Hz,0000000000c,0000000.000s, 012.5C,00002191
2016-03-09 17:31:37 r, 00.00m,0000596454Hz,0000000000c,0000000.000s, 012.2C,00002191
2016-03-09 17:41:37 r, 00.00m,0000596523Hz,0000000000c,0000000.000s, 011.9C,00002191
2016-03-09 17:51:38 r, 00.00m,0000596673Hz,0000000000c,0000000.000s, 011.6C,00002191
2016-03-09 18:01:37 r, 05.99m,0000339454Hz,0000000000c,0000000.000s, 011.2C,00002191
2016-03-09 18:11:37 r, 06.56m,0000199929Hz,0000000000c,0000000.000s, 011.2C,00002191
2016-03-09 18:21:37 r, 07.29m,0000102042Hz,0000000000c,0000000.000s, 010.9C,00002191
2016-03-09 18:31:36 r, 08.35m,0000038658Hz,0000000000c,0000000.000s, 010.6C,00002191
2016-03-09 18:41:37 r, 09.91m,0000009201Hz,0000000000c,0000000.000s, 010.6C,00002191
2016-03-09 18:51:37 r, 11.87m,0000001510Hz,0000000000c,0000000.000s, 010.6C,00002191
2016-03-09 19:01:37 r, 13.83m,0000000247Hz,0000000000c,0000000.000s, 010.6C,00002191
2016-03-09 19:11:37 r, 15.74m,0000000043Hz,0000010915c,0000000.024s, 010.6C,00002191
2016-03-09 19:21:37 r, 17.34m,0000000010Hz,0000047108c,0000000.102s, 010.3C,00002191
2016-03-09 19:31:36 r, 18.44m,0000000004Hz,0000129544c,0000000.281s, 010.3C,00002191
2016-03-09 19:41:37 r, 18.82m,0000000003Hz,0000183159c,0000000.397s, 010.3C,00002191
2016-03-09 19:51:37 r, 18.85m,0000000002Hz,0000188266c,0000000.409s, 010.3C,00002191
2016-03-09 20:01:37 r, 18.94m,0000000002Hz,0000204427c,0000000.444s, 010.3C,00002191
2016-03-09 20:11:37 r, 19.12m,0000000002Hz,0000240991c,0000000.523s, 010.3C,00002191
2016-03-09 20:21:37 r, 19.35m,0000000002Hz,0000299365c,0000000.650s, 010.3C,00002191
2016-03-09 20:31:37 r, 19.11m,0000000002Hz,0000238023c,0000000.517s, 010.3C,00002191
2016-03-09 20:41:37 r, 19.20m,0000000002Hz,0000261080c,0000000.567s, 010.3C,00002191
2016-03-09 20:51:37 r, 19.24m,0000000001Hz,0000270556c,0000000.587s, 010.3C,00002191
2016-03-09 21:01:37 r, 19.18m,0000000002Hz,0000255211c,0000000.554s, 010.3C,00002191
2016-03-09 21:11:37 r, 19.58m,0000000001Hz,0000367726c,0000000.798s, 010.3C,00002191
2016-03-09 21:21:37 r, 19.18m,0000000002Hz,0000255541c,0000000.555s, 010.3C,00002191
2016-03-09 21:31:37 r, 19.40m,0000000001Hz,0000313757c,0000000.681s, 010.6C,00002191
2016-03-09 21:41:36 r, 19.30m,0000000002Hz,0000285958c,0000000.621s, 010.6C,00002191
2016-03-09 21:51:36 r, 19.28m,0000000002Hz,0000279329c,0000000.606s, 010.6C,00002191
2016-03-09 22:01:37 r, 19.14m,0000000002Hz,0000246845c,0000000.536s, 010.6C,00002191
2016-03-09 22:11:37 r, 19.07m,0000000002Hz,0000231266c,0000000.502s, 010.6C,00002191
2016-03-09 22:21:37 r, 19.31m,0000000002Hz,0000289750c,0000000.629s, 010.9C,00002191
2016-03-09 22:31:37 r, 19.23m,0000000001Hz,0000267721c,0000000.581s, 010.9C,00002191
2016-03-09 22:41:37 r, 19.08m,0000000002Hz,0000232519c,0000000.505s, 010.9C,00002191
2016-03-09 22:51:37 r, 18.95m,0000000002Hz,0000207306c,0000000.450s, 010.9C,00002191
2016-03-09 23:01:36 r, 19.08m,0000000002Hz,0000233579c,0000000.507s, 010.9C,00002191
2016-03-09 23:11:37 r, 18.94m,0000000002Hz,0000204451c,0000000.444s, 011.2C,00002191
2016-03-09 23:21:37 r, 18.89m,0000000002Hz,0000194788c,0000000.423s, 011.2C,00002191
2016-03-09 23:31:37 r, 18.94m,0000000002Hz,0000205549c,0000000.446s, 011.6C,00002191
2016-03-09 23:41:37 r, 18.93m,0000000002Hz,0000203611c,0000000.442s, 011.6C,00002191
2016-03-09 23:51:37 r, 18.92m,0000000002Hz,0000200769c,0000000.436s, 011.6C,00002191
